Погода в Усадах

Россия / Республика Татарстан     55°40′44″N   49°13′09″E
В апреле 2022 года жителям России запретили посещать сайт meteo.paraplan.net по решению Генеральной прокуратуры. Аудитория сайта уменьшилась в 10 раз. Владельцы сайта не видят смысла в поддержке погодного сервера в таких условиях. Сайт будет закрыт в октябре.
темп.,
°C
ветер,
м/с
пор.,
м/с
влажн.,
%
обл.,
%
осадки,
мм/ч
давл.,
гПа
погр.,
м
3 октября, пн
пн300:00+13ююв61392100 0.0 1012423
03:00+13ююв6139599 0.4 1013436
06:00+13ююв6159068 0.3 1013449
09:00+14ююв8167093 0.3 1014549
12:00+17ю8165345 0.0 1015839
15:00+17ююв815488 0.0 10161003
18:00+15ююв8164977 0.0 1017698
21:00+13ююв71648100 0.0 1019623
4 октября, вт
вт400:00+12ююв6144898 0.0 1020526
03:00+12ююв61347100 0.0 1020490
06:00+11ююв61248100 0.0 1022490
09:00+10ю61360100 0.1 1023623
12:00+10ююв51266100 0.3 1024559
15:00+13ююв51150100 0.4 1024646
18:00+12ююв51349100 0.0 1024425
21:00+10ююз51172100 0.6 1025542
5 октября, ср
ср500:00+10юв51171100 0.2 1024339
03:00+10ююв41071100 0.8 1024372
06:00+9ююв71366100 0.0 1024552
09:00+10ююв7116788 0.0 1023684
12:00+14ю710525 0.0 1021917
15:00+13ююв71245100 0.0 1020786
18:00+12ю61259100 0.2 1020732
21:00+11ю71356100 0.3 1018572
6 октября, чт
чт600:00+10ю6118699 0.5 1018543
03:00+9ю5109590 0.5 1017302
06:00+9юз41086100 0.3 1016700
09:00+10зюз576813 0.4 1016970
12:00+11зюз6756100 0.1 10151561
15:00+10з565892 0.1 10151103
18:00+7з377112 0.0 1016336
21:00+5з248741 0.0 1016126
7 октября, пт
пт700:00+5юз348878 0.0 1015107
03:00+6юз378048 0.0 1015285
06:00+4ююз3881100 0.0 1013180
09:00+6ю41088100 0.8 1011419
12:00+8зюз51194100 1.2 1011610
15:00+10зсз41085100 1.3 1011676
18:00+9з61280100 0.2 1013707
21:00+9з7138198 0.4 1013967